{"data":{"norad_id":45161,"intl_designator":"2020-008AG","name":"ONEWEB-0058","alt_names":[],"object_type":"PAYLOAD","status":"ACTIVE","operator":null,"country":"UK","launch_date":"2020-02-06","launch_site_code":"TYMSC","launch_vehicle":null,"mission":null,"orbit_class":"UNKNOWN","rcs_meters":null,"size_class":null,"mass_kg":null,"dimensions":null,"purposes":["comms"],"wikipedia_slug":null,"has_3d_model":false,"image_url":null,"decayed_at":null,"tle_current":{"epoch":"2026-05-25T03:37:01.713792Z","epoch_age_seconds":72193,"freshness":"FRESH","line1":"1 45161U 20008AG  26145.15071428  .00000511  00000+0  14276-2 0  9991","line2":"2 45161  87.8855  40.8653 0001703  72.4712 287.6601 13.10375759305403","mean_motion":13.10375759,"eccentricity":0.0001703,"inclination_deg":87.8855,"raan_deg":40.8653,"arg_perigee_deg":72.4712,"mean_anomaly_deg":287.6601,"bstar":0.0014276,"rev_number":30540,"period_min":109.89214277735,"perigee_km":1220.411522302,"apogee_km":1223.0000287513,"semimajor_km":7599.8427755266,"source":"CELESTRAK","updated_at":"2026-05-25T13:38:22.339723Z"}}}